Location: ??????????
(42.1626°N, 44.1160°E)
Time: 14:36:46
(UTC+00:00)

Meteor 2-20 - Pass Details

Date: 03 March 2021
Orbit: 940 x 958 km, 82.5° (Epoch: 20 April)

Event Time Altitude Azimuth Distance (km) Brightness Sun altitude
Rises 17:01:30 0° 355° (N) 3,622 7.7 -23.9°
Reaches altitude 10° 17:04:04 10° 360° (N) 2,675 6.9 -24.4°
Enters shadow 17:09:53 56° 71° (ENE) 1,117 4.5 -25.4°
